TimeCST,TemperatureF,Dew PointF,Humidity,Sea Level PressureIn,VisibilityMPH,Wind Direction,Wind SpeedMPH,Gust SpeedMPH,PrecipitationIn,Events,Conditions,WindDirDegrees,DateUTC
12:15 AM,37.4,26.6,65,29.92,10.0,WSW,5.8,-,N/A,,Clear,250,2013-01-19 06:15:00
12:35 AM,37.4,24.8,60,29.91,10.0,WSW,8.1,-,N/A,,Clear,240,2013-01-19 06:35:00
12:55 AM,35.6,24.8,65,29.91,10.0,WSW,10.4,-,N/A,,Clear,250,2013-01-19 06:55:00
1:15 AM,41.0,23.0,49,29.91,10.0,West,5.8,-,N/A,,Clear,260,2013-01-19 07:15:00
1:35 AM,39.2,23.0,52,29.90,10.0,WSW,9.2,-,N/A,,Clear,250,2013-01-19 07:35:00
1:55 AM,39.2,21.2,49,29.91,10.0,West,9.2,-,N/A,,Clear,260,2013-01-19 07:55:00
2:15 AM,39.2,21.2,49,29.92,10.0,West,8.1,-,N/A,,Clear,270,2013-01-19 08:15:00
2:35 AM,37.4,21.2,52,29.92,10.0,West,8.1,-,N/A,,Clear,260,2013-01-19 08:35:00
2:55 AM,39.2,21.2,49,29.93,10.0,WSW,6.9,-,N/A,,Clear,240,2013-01-19 08:55:00
3:15 AM,37.4,19.4,48,29.93,10.0,WSW,11.5,-,N/A,,Clear,250,2013-01-19 09:15:00
3:35 AM,35.6,21.2,56,29.94,10.0,West,10.4,-,N/A,,Clear,270,2013-01-19 09:35:00
3:55 AM,35.6,21.2,56,29.93,10.0,WNW,10.4,-,N/A,,Clear,290,2013-01-19 09:55:00
4:15 AM,35.6,21.2,56,29.93,10.0,West,9.2,-,N/A,,Clear,280,2013-01-19 10:15:00
4:35 AM,33.8,21.2,60,29.93,10.0,West,11.5,-,N/A,,Clear,280,2013-01-19 10:35:00
4:55 AM,33.8,21.2,60,29.93,10.0,WNW,11.5,-,N/A,,Clear,290,2013-01-19 10:55:00
5:15 AM,33.8,21.2,60,29.94,10.0,WNW,12.7,-,N/A,,Clear,290,2013-01-19 11:15:00
5:35 AM,33.8,21.2,60,29.94,10.0,WNW,13.8,-,N/A,,Clear,290,2013-01-19 11:35:00
5:55 AM,35.6,21.2,56,29.95,10.0,WNW,13.8,-,N/A,,Clear,290,2013-01-19 11:55:00
6:15 AM,35.6,23.0,60,29.95,10.0,WNW,11.5,-,N/A,,Clear,290,2013-01-19 12:15:00
6:35 AM,35.6,21.2,56,29.98,10.0,WNW,11.5,-,N/A,,Clear,290,2013-01-19 12:35:00
6:55 AM,35.6,21.2,56,29.98,10.0,WNW,12.7,-,N/A,,Clear,290,2013-01-19 12:55:00
7:15 AM,35.6,21.2,56,29.99,10.0,WNW,12.7,-,N/A,,Clear,290,2013-01-19 13:15:00
7:35 AM,35.6,21.2,56,30.00,10.0,WNW,12.7,-,N/A,,Clear,300,2013-01-19 13:35:00
7:55 AM,33.8,21.2,60,30.01,10.0,WNW,10.4,-,N/A,,Clear,290,2013-01-19 13:55:00
8:15 AM,33.8,23.0,65,30.03,10.0,WNW,11.5,-,N/A,,Clear,290,2013-01-19 14:15:00
8:35 AM,33.8,23.0,65,30.04,10.0,WNW,10.4,-,N/A,,Clear,290,2013-01-19 14:35:00
8:55 AM,33.8,23.0,65,30.05,10.0,WNW,11.5,-,N/A,,Clear,290,2013-01-19 14:55:00
9:15 AM,35.6,24.8,65,30.06,10.0,WNW,11.5,-,N/A,,Clear,290,2013-01-19 15:15:00
9:35 AM,39.2,24.8,56,30.07,10.0,WNW,11.5,-,N/A,,Clear,290,2013-01-19 15:35:00
9:55 AM,41.0,24.8,53,30.08,10.0,WNW,12.7,-,N/A,,Clear,290,2013-01-19 15:55:00
10:15 AM,44.6,24.8,46,30.09,10.0,WNW,11.5,-,N/A,,Clear,290,2013-01-19 16:15:00
10:35 AM,46.4,24.8,43,30.10,10.0,WNW,13.8,-,N/A,,Clear,290,2013-01-19 16:35:00
10:55 AM,48.2,24.8,40,30.11,10.0,WNW,15.0,-,N/A,,Clear,290,2013-01-19 16:55:00
11:15 AM,50.0,24.8,37,30.11,10.0,WNW,13.8,-,N/A,,Clear,300,2013-01-19 17:15:00
11:35 AM,51.8,24.8,35,30.10,10.0,WNW,17.3,-,N/A,,Clear,300,2013-01-19 17:35:00
11:55 AM,53.6,23.0,30,30.10,10.0,NW,15.0,23.0,N/A,,Clear,310,2013-01-19 17:55:00
12:15 PM,53.6,24.8,33,30.09,10.0,NW,18.4,24.2,N/A,,Clear,310,2013-01-19 18:15:00
12:35 PM,53.6,23.0,30,30.09,10.0,WNW,18.4,25.3,N/A,,Clear,300,2013-01-19 18:35:00
12:55 PM,55.4,24.8,31,30.08,10.0,NW,25.3,29.9,N/A,,Clear,310,2013-01-19 18:55:00
1:15 PM,55.4,23.0,29,30.08,10.0,NW,23.0,33.4,N/A,,Clear,320,2013-01-19 19:15:00
1:35 PM,55.4,24.8,31,30.08,10.0,NW,19.6,26.5,N/A,,Clear,310,2013-01-19 19:35:00
1:55 PM,55.4,23.0,29,30.08,10.0,NW,21.9,28.8,N/A,,Clear,310,2013-01-19 19:55:00
2:15 PM,55.4,21.2,26,30.08,10.0,NW,18.4,26.5,N/A,,Clear,310,2013-01-19 20:15:00
2:35 PM,55.4,21.2,26,30.09,10.0,WNW,20.7,27.6,N/A,,Clear,300,2013-01-19 20:35:00
2:55 PM,55.4,21.2,26,30.09,10.0,NW,19.6,26.5,N/A,,Clear,310,2013-01-19 20:55:00
3:15 PM,55.4,21.2,26,30.10,10.0,NW,19.6,26.5,N/A,,Clear,310,2013-01-19 21:15:00
3:35 PM,55.4,21.2,26,30.10,10.0,WNW,16.1,24.2,N/A,,Clear,300,2013-01-19 21:35:00
3:55 PM,55.4,23.0,29,30.11,10.0,NW,13.8,-,N/A,,Clear,320,2013-01-19 21:55:00
4:15 PM,55.4,21.2,26,30.12,10.0,NW,15.0,-,N/A,,Clear,320,2013-01-19 22:15:00
4:35 PM,53.6,21.2,28,30.13,10.0,NW,18.4,26.5,N/A,,Clear,320,2013-01-19 22:35:00
4:55 PM,51.8,21.2,30,30.13,10.0,NW,16.1,24.2,N/A,,Clear,320,2013-01-19 22:55:00
5:15 PM,50.0,21.2,32,30.15,10.0,NNW,12.7,-,N/A,,Clear,330,2013-01-19 23:15:00
5:35 PM,46.4,21.2,37,30.16,10.0,NW,8.1,-,N/A,,Clear,310,2013-01-19 23:35:00
5:55 PM,44.6,23.0,43,30.17,10.0,NW,9.2,-,N/A,,Clear,310,2013-01-19 23:55:00
6:15 PM,41.0,23.0,49,30.18,10.0,WNW,6.9,-,N/A,,Clear,300,2013-01-20 00:15:00
6:35 PM,39.2,23.0,52,30.19,10.0,NW,6.9,-,N/A,,Clear,310,2013-01-20 00:35:00
6:55 PM,39.2,23.0,52,30.20,10.0,NW,9.2,-,N/A,,Clear,320,2013-01-20 00:55:00
7:15 PM,39.2,23.0,52,30.20,10.0,NW,11.5,-,N/A,,Clear,320,2013-01-20 01:15:00
7:35 PM,37.4,23.0,56,30.22,10.0,NNW,10.4,-,N/A,,Clear,330,2013-01-20 01:35:00
7:55 PM,37.4,23.0,56,30.22,10.0,North,9.2,-,N/A,,Clear,360,2013-01-20 01:55:00
8:15 PM,35.6,24.8,65,30.23,10.0,North,13.8,-,N/A,,Clear,10,2013-01-20 02:15:00
8:35 PM,33.8,23.0,65,30.23,10.0,NNE,12.7,-,N/A,,Clear,20,2013-01-20 02:35:00
8:55 PM,33.8,24.8,70,30.24,10.0,North,11.5,-,N/A,,Clear,10,2013-01-20 02:55:00
9:15 PM,33.8,24.8,70,30.25,10.0,NNE,11.5,-,N/A,,Clear,20,2013-01-20 03:15:00
9:35 PM,33.8,24.8,70,30.25,10.0,NNE,12.7,-,N/A,,Clear,20,2013-01-20 03:35:00
9:55 PM,32.0,24.8,75,30.25,10.0,North,11.5,-,N/A,,Clear,10,2013-01-20 03:55:00
10:15 PM,30.2,24.8,80,30.26,10.0,North,11.5,-,N/A,,Clear,10,2013-01-20 04:15:00
10:35 PM,30.2,24.8,80,30.26,10.0,NNE,13.8,-,N/A,,Clear,20,2013-01-20 04:35:00
10:55 PM,30.2,26.6,86,30.28,10.0,NE,16.1,-,N/A,,Clear,40,2013-01-20 04:55:00
11:15 PM,28.4,26.6,93,30.29,10.0,NE,13.8,-,N/A,,Clear,40,2013-01-20 05:15:00
11:35 PM,28.4,24.8,86,30.29,10.0,NE,11.5,-,N/A,,Clear,40,2013-01-20 05:35:00
11:55 PM,26.6,21.2,80,30.29,10.0,NE,5.8,-,N/A,,Clear,50,2013-01-20 05:55:00